Flag for U.S.A. Weather past 2 weeks in Laredo, Texas, U.S.A.

Now
95 °F

Scattered clouds.


Feels Like: 102 °F
Forecast: 78 / 98 °F
Wind: 20 mph from Southeast

Location: Laredo International Airport

Current Time: Jul 5, 2015 at 8:09:13 PM

Latest Report: Jul 5, 2015 at 6:56 PM


Visibility: 10 mi

Pressure: 29.85 "Hg

Humidity: 46%

Dew point: 71 °F

Location of LaredoLocation

Historic Weather in Laredo — Graph

°F

Laredo temperature yesterday

Maximum temperature yesterday: 97 °F (at 2:56 PM)
Minimum temperature yesterday: 77 °F (at 6:56 AM)
Average temperature yesterday: 86 °F

Past Weeks' High & Low Weather Summary

 TemperatureHumidityPressure
High98 °F (Jun 26, 3:56 PM)100% (Jun 24, 6:56 AM)30.12 "Hg (Jun 24, 6:56 AM)
Low71 °F (Jul 2, 6:56 AM)29% (Jun 29, 5:56 PM)29.83 "Hg (Jul 3, 5:56 PM)
Average84 °F69%29.96 "Hg
* Reported Jun 20 6:56 PM — Jul 5 6:56 PM, Laredo, Weather by CustomWeather, © 2015

Note: Actual official high and low records may vary slightly from our data, if they occured in-between our weather recording intervals... More about our weather records

Advertising

Laredo weather history for previous 24 hours

 ConditionsComfort  
Time TempWeatherWind HumidityBarometerVisibility
6:56 PM
Sun, Jul 5
95 °FScattered clouds.20 mph46%29.85 "Hg10 mi
5:56 PM98 °FScattered clouds.22 mph40%29.84 "Hg10 mi
4:56 PM97 °FPassing clouds.20 mph40%29.85 "Hg10 mi
3:56 PM97 °FScattered clouds.23 mph42%29.89 "Hg10 mi
2:56 PM94 °FScattered clouds.18 mph47%29.92 "Hg10 mi
1:56 PM93 °FScattered clouds.21 mph47%29.94 "Hg10 mi
12:56 PM91 °FScattered clouds.18 mph50%29.96 "Hg10 mi
11:56 AM89 °FBroken clouds.20 mph55%29.98 "Hg10 mi
10:56 AM86 °FPartly sunny.17 mph61%29.98 "Hg10 mi
9:56 AM82 °FPartly sunny.15 mph72%29.98 "Hg9 mi
8:56 AM80 °FPartly sunny.16 mph79%29.97 "Hg9 mi
7:56 AM76 °FSunny.13 mph85%29.97 "Hg9 mi
6:56 AM76 °FClear.12 mph85%29.96 "Hg10 mi
5:56 AM76 °FClear.10 mph82%29.94 "Hg10 mi
4:56 AM77 °FClear.9 mph76%29.92 "Hg10 mi
3:56 AM79 °FClear.13 mph71%29.92 "Hg10 mi
2:56 AM79 °FClear.13 mph71%29.92 "Hg10 mi
1:56 AM80 °FClear.17 mph69%29.93 "Hg10 mi
12:56 AM81 °FClear.18 mph67%29.94 "Hg10 mi
11:56 PM
Sat, Jul 4
82 °FClear.15 mph61%29.93 "Hg10 mi
10:56 PM83 °FClear.15 mph56%29.92 "Hg10 mi
9:56 PM85 °FClear.14 mph61%29.89 "Hg10 mi
8:56 PM89 °FSunny.23 mph55%29.86 "Hg10 mi
Weather by CustomWeather, © 2015

See weather overviewHow to use our weather pages